Total_Precipitation_Accumulation
0.08 0.19 0.50 0.88 1.59 1.76 1.33 0.83 0.63 0.62 0.68 0.68 0.61 0.59 0.69 0.82 1.16 1.89 1.58 1.13 0.85 0.91 1.07 1.22 1.57 1.57 1.56 1.50 1.49 1.53 1.48 1.35 1.24 1.22 1.21 1.24 1.26 1.20 1.22 1.27 1.27 1.31 1.34 1.42 1.52 1.44 1.41 1.42 1.47
0.18 0.39 0.73 1.32 1.79 1.42 1.24 0.73 0.44 0.51 0.61 0.75 0.76 0.64 0.57 0.62 0.66 0.86 1.11 1.20 0.77 0.67 0.78 0.89 1.18 1.26 1.33 1.29 1.30 1.32 1.26 1.19 1.16 1.12 1.18 1.23 1.29 1.31 1.33 1.39 1.37 1.38 1.41 1.44 1.48 1.46 1.43 1.46 1.55
0.29 0.51 0.79 1.37 1.14 0.90 0.93 0.59 0.43 0.36 0.53 0.78 0.77 0.57 0.65 0.78 0.72 0.82 0.95 0.98 0.72 0.63 0.63 0.83 1.09 1.16 1.22 1.20 1.20 1.21 1.17 1.16 1.17 1.18 1.20 1.22 1.31 1.40 1.48 1.54 1.55 1.59 1.66 1.58 1.53 1.54 1.45 1.41 1.44
0.41 0.58 0.82 0.85 0.47 0.34 0.44 0.48 0.49 0.48 0.66 0.80 0.68 0.62 0.70 0.81 0.77 0.73 0.72 0.78 0.61 0.66 0.66 0.84 1.16 1.18 1.15 1.12 1.06 1.05 1.09 1.14 1.15 1.20 1.25 1.35 1.37 1.38 1.50 1.58 1.64 1.74 1.70 1.61 1.61 1.63 1.41 1.35 1.39
0.37 0.59 0.87 0.58 0.30 0.23 0.25 0.30 0.38 0.55 0.73 0.85 0.74 0.75 0.93 0.84 0.67 0.60 0.59 0.72 0.69 0.71 0.71 0.85 1.17 1.23 1.14 1.07 1.02 1.00 0.99 1.03 1.02 1.06 1.18 1.36 1.36 1.29 1.41 1.55 1.62 1.59 1.64 1.65 1.67 1.63 1.51 1.46 1.40
0.44 0.51 0.62 0.38 0.22 0.19 0.22 0.27 0.41 0.60 0.64 0.72 0.83 0.95 1.12 0.91 0.73 0.64 0.70 0.81 0.81 0.77 0.73 0.96 1.20 1.27 1.20 1.10 1.02 1.02 1.00 0.95 0.97 1.00 1.10 1.22 1.27 1.30 1.42 1.55 1.50 1.44 1.46 1.52 1.59 1.59 1.57 1.45 1.35
0.44 0.47 0.41 0.24 0.15 0.17 0.24 0.34 0.39 0.52 0.59 0.81 0.87 0.97 1.17 1.12 0.91 0.75 0.87 1.11 1.09 1.00 0.88 1.08 1.26 1.18 1.17 1.16 1.06 1.05 1.03 0.99 0.99 1.00 1.09 1.16 1.27 1.33 1.46 1.66 1.61 1.47 1.40 1.44 1.53 1.50 1.56 1.35 1.23
0.28 0.33 0.31 0.22 0.12 0.15 0.21 0.27 0.38 0.52 0.63 0.71 0.84 1.03 1.12 1.04 0.92 0.94 1.14 1.51 1.69 1.61 1.38 1.18 1.21 1.21 1.11 1.09 1.14 1.16 1.01 0.94 1.02 1.11 1.22 1.29 1.36 1.45 1.58 1.66 1.79 1.65 1.54 1.56 1.64 1.51 1.36 1.29 1.28
0.17 0.26 0.26 0.17 0.13 0.16 0.22 0.27 0.33 0.39 0.50 0.72 0.92 1.10 1.05 0.86 0.88 1.10 1.34 1.68 1.92 1.77 1.63 1.44 1.38 1.35 1.28 1.19 1.08 1.27 1.16 1.07 1.22 1.50 1.57 1.74 1.87 1.75 1.83 1.77 1.93 1.84 1.83 2.00 2.05 1.84 1.65 1.54 1.50
0.10 0.16 0.13 0.08 0.08 0.08 0.14 0.23 0.30 0.44 0.75 1.19 1.43 1.32 1.10 0.96 1.06 1.31 1.49 1.54 1.67 1.70 1.67 1.73 1.59 1.53 1.52 1.36 1.54 1.88 1.68 1.66 1.91 2.06 1.98 2.41 2.63 2.36 1.87 1.97 2.28 2.29 2.38 2.53 2.57 2.55 2.20 1.88 1.66
0.05 0.09 0.07 0.05 0.05 0.05 0.08 0.16 0.28 0.47 0.98 1.47 1.68 1.39 1.19 1.18 1.27 1.41 1.74 1.84 1.95 1.94 1.82 1.92 1.83 1.78 1.85 1.94 1.96 2.17 2.32 2.44 2.56 2.53 2.57 2.85 2.68 2.27 2.07 2.32 2.68 2.71 2.72 2.74 2.86 2.92 2.42 2.35 2.34
0.03 0.04 0.04 0.03 0.04 0.05 0.08 0.16 0.36 0.61 1.01 1.30 1.23 1.10 1.09 1.34 1.53 1.70 1.98 2.26 2.37 2.43 2.38 2.17 2.08 2.32 2.39 2.28 2.23 2.11 1.95 1.99 2.23 2.37 2.33 2.74 3.02 2.93 2.88 2.99 2.88 3.03 3.22 3.48 3.21 3.15 2.93 2.86 2.60
0.03 0.03 0.04 0.04 0.04 0.08 0.11 0.19 0.39 0.70 0.91 0.97 0.85 0.90 1.17 1.47 1.75 2.19 2.58 2.66 2.63 2.86 3.03 2.84 2.76 2.76 2.63 2.69 2.35 2.03 1.95 1.80 1.75 2.08 2.31 2.53 2.90 3.05 3.14 2.94 2.91 2.78 2.87 3.00 3.00 2.76 2.87 2.99 2.88
0.02 0.03 0.05 0.06 0.06 0.10 0.19 0.27 0.39 0.62 0.71 0.71 0.78 1.02 1.24 1.64 1.95 2.47 2.95 3.02 3.12 3.38 3.58 3.48 3.46 3.29 3.01 2.78 2.64 2.47 2.21 2.11 1.81 2.02 2.15 2.48 2.84 2.92 2.83 2.91 3.03 2.84 2.81 2.76 2.76 2.78 3.04 3.16 3.15
0.03 0.05 0.11 0.12 0.13 0.12 0.21 0.45 0.52 0.68 0.76 0.73 0.89 1.06 1.43 1.89 2.16 2.47 2.72 3.12 3.54 3.92 3.99 3.95 3.95 3.87 3.84 3.53 3.12 2.72 2.60 2.31 2.24 2.25 2.15 2.41 2.72 2.89 2.84 2.85 2.73 2.68 2.70 2.80 2.83 2.89 3.04 2.92 2.96
0.05 0.11 0.25 0.24 0.20 0.18 0.24 0.68 0.86 0.79 0.75 0.81 0.97 1.29 1.56 1.87 2.27 2.48 2.80 3.16 3.56 4.07 4.46 4.54 4.05 4.02 4.09 4.01 3.71 3.26 3.18 3.01 2.81 2.51 2.33 2.32 2.53 2.60 2.70 2.54 2.47 2.50 2.35 2.44 2.63 2.62 2.67 2.77 2.91
0.09 0.16 0.24 0.33 0.23 0.21 0.34 0.86 1.18 0.89 0.69 0.84 1.11 1.42 1.78 2.02 2.43 2.55 2.73 3.01 3.46 4.34 5.24 5.25 4.75 4.34 4.06 4.01 4.04 3.90 3.74 3.37 2.91 2.66 2.55 2.39 2.25 2.10 2.20 2.19 2.27 2.20 2.16 2.23 2.08 2.45 2.58 2.70 2.78
0.10 0.15 0.28 0.41 0.27 0.27 0.41 0.83 0.86 0.76 0.91 0.92 0.96 1.18 1.52 1.65 1.95 2.22 2.49 3.04 3.84 5.02 5.80 5.72 5.11 4.67 4.34 4.16 4.00 3.95 3.70 3.39 2.91 2.71 2.56 2.27 2.24 1.97 1.99 1.98 2.07 1.97 2.08 2.27 2.37 2.56 2.49 2.40 2.46
0.08 0.14 0.27 0.32 0.26 0.35 0.46 0.68 0.78 0.91 1.09 1.07 0.92 0.98 1.27 1.47 1.75 2.21 2.76 3.60 4.68 5.58 5.86 5.37 4.90 4.58 4.16 3.78 3.22 2.87 2.92 2.81 2.51 2.24 1.96 1.88 1.82 1.90 2.06 1.88 2.07 1.92 1.98 2.07 2.14 2.25 2.24 2.15 2.22
0.09 0.15 0.25 0.31 0.23 0.29 0.45 0.76 1.09 1.08 1.00 0.95 1.01 1.03 1.12 1.47 1.91 2.63 3.66 4.23 4.47 4.60 4.37 4.04 3.80 3.61 3.16 2.84 2.67 2.45 2.50 2.25 2.08 2.01 2.03 1.71 1.62 1.69 1.66 1.88 1.89 1.87 2.04 2.08 2.03 2.13 2.11 1.95 1.99
0.12 0.17 0.24 0.30 0.22 0.26 0.49 0.97 1.25 1.24 1.02 0.88 0.96 0.97 1.12 1.52 2.10 2.90 3.47 3.59 3.30 3.00 2.92 2.86 2.93 2.69 2.59 2.61 2.54 2.47 2.52 2.24 2.00 1.91 1.95 1.64 1.44 1.46 1.54 1.62 1.70 1.88 1.81 1.95 2.00 1.92 1.98 2.01 1.97
0.11 0.10 0.10 0.13 0.23 0.42 0.62 1.24 1.45 1.22 1.15 0.96 0.99 1.00 1.01 1.28 1.63 2.06 2.30 2.19 2.30 2.45 2.46 2.57 2.65 2.40 2.39 2.37 2.11 2.05 2.02 1.90 1.78 1.75 1.80 1.88 1.55 1.38 1.36 1.42 1.52 1.68 1.63 1.84 1.67 1.79 1.98 2.04 1.91
0.06 0.05 0.08 0.15 0.29 0.50 0.70 1.00 1.20 1.02 1.17 0.97 0.86 0.86 0.80 0.93 1.01 1.13 1.26 1.42 1.62 1.73 1.90 2.19 2.44 2.38 2.22 2.07 2.03 2.11 1.99 1.95 1.94 1.96 1.98 2.01 1.81 1.56 1.38 1.45 1.53 1.59 1.54 1.59 1.61 1.94 1.95 1.86 1.78
0.06 0.08 0.17 0.29 0.46 0.97 0.95 0.94 1.13 1.08 1.18 0.95 0.79 0.69 0.71 0.80 0.87 0.90 0.97 1.12 1.28 1.40 1.56 1.81 2.14 2.28 2.20 2.05 1.97 2.03 2.10 2.08 2.01 2.00 1.97 1.78 1.69 1.64 1.48 1.49 1.53 1.46 1.44 1.46 1.51 1.77 1.79 1.83 1.89
0.07 0.11 0.32 0.68 1.06 1.23 0.81 0.88 1.11 0.90 0.84 0.71 0.51 0.50 0.61 0.79 0.91 0.97 0.93 0.91 0.97 1.11 1.26 1.36 1.58 1.87 1.97 1.93 1.91 1.94 2.10 2.03 1.86 1.75 1.68 1.62 1.44 1.38 1.40 1.46 1.57 1.42 1.39 1.47 1.65 1.74 1.74 1.78 1.80
0.06 0.07 0.18 0.34 0.45 0.61 0.78 1.15 1.25 0.91 0.64 0.40 0.32 0.43 0.66 0.79 0.81 0.83 0.83 0.81 0.78 0.86 1.04 1.18 1.40 1.59 1.79 1.81 1.79 1.83 1.92 1.85 1.72 1.73 1.55 1.50 1.43 1.37 1.46 1.50 1.49 1.45 1.43 1.43 1.72 1.65 1.64 1.71 1.66
0.07 0.06 0.07 0.13 0.18 0.40 0.78 1.09 1.05 0.82 0.63 0.45 0.39 0.43 0.64 0.67 0.62 0.74 0.79 0.88 0.87 0.85 0.97 1.11 1.35 1.57 1.76 1.87 1.90 1.85 1.85 1.87 1.84 1.78 1.58 1.42 1.54 1.45 1.55 1.58 1.52 1.51 1.62 1.74 1.88 1.76 1.76 1.82 1.67
0.07 0.08 0.07 0.09 0.19 0.34 0.62 1.03 1.22 1.01 0.77 0.61 0.54 0.52 0.63 0.66 0.67 0.86 1.00 0.98 0.82 0.70 0.78 0.97 1.20 1.51 1.71 1.89 1.89 1.77 1.91 1.86 1.86 1.81 1.68 1.52 1.50 1.49 1.60 1.72 1.68 1.71 1.73 1.84 1.92 1.78 1.86 1.86 1.75
0.08 0.08 0.09 0.09 0.12 0.21 0.49 0.70 0.65 0.62 0.58 0.61 0.68 0.62 0.53 0.62 0.75 0.90 1.08 1.03 0.81 0.70 0.69 0.83 1.14 1.40 1.56 1.68 1.76 1.70 1.68 1.62 1.64 1.68 1.68 1.64 1.61 1.54 1.56 1.64 1.66 1.63 1.68 1.77 1.85 1.73 1.78 1.76 1.78
0.11 0.12 0.12 0.13 0.12 0.13 0.26 0.49 0.38 0.43 0.53 0.60 0.67 0.75 0.76 0.78 0.80 0.75 0.87 1.00 0.94 0.81 0.74 0.92 1.19 1.37 1.44 1.48 1.46 1.46 1.51 1.51 1.46 1.44 1.50 1.55 1.48 1.42 1.48 1.53 1.50 1.44 1.55 1.70 1.73 1.66 1.73 1.77 1.73